Location: Ostrava
(49.8330°N, 18.2830°E)
Time: 13:53:34
(UTC+02:00)

Cosmos 1400 Rocket - Visible Passes

Search period start: 26 August 2016 00:00
Search period end: 05 September 2016 00:00
Orbit: 523 x 571 km, 81.2° (Epoch: 26 August)

Date Brightness Start Highest point End Pass type
(mag) Time Alt. Az. Time Alt. Az. Time Alt. Az.
29 Aug 6.6 04:11:12 10° NE 04:12:09 11° ENE 04:13:04 10° ENE visible
30 Aug 6.4 04:05:44 10° NE 04:07:05 11° ENE 04:08:26 10° E visible
31 Aug 6.2 04:00:22 10° NE 04:02:02 12° ENE 04:03:40 10° E visible
01 Sep 6.1 03:55:03 10° NNE 03:56:57 13° ENE 03:58:52 10° E visible
02 Sep 6.0 03:49:46 10° NNE 03:51:54 14° ENE 03:54:01 10° E visible
02 Sep 2.7 05:25:01 10° NNW 05:28:53 63° W 05:32:43 10° S visible
03 Sep 5.9 03:44:31 10° NNE 03:46:50 15° ENE 03:49:08 10° E visible
03 Sep 2.8 05:19:55 10° NNW 05:23:46 57° W 05:27:34 10° S visible
04 Sep 5.8 03:39:17 10° NNE 03:41:46 16° ENE 03:44:14 10° ESE visible
04 Sep 2.9 05:14:50 10° NNW 05:18:39 52° W 05:22:25 10° S visible
